This is the latest recevied weather packets stored in our database for station/object W4GAP. If no packets are shown the sender has not sent any weather packets the latest 10 day(s).
| Time | Temp. | Humidity | Pressure | Rain* | Wind** | Luminosity | Snow |
|---|---|---|---|---|---|---|---|
| 1777984456 | 13.89° C | 77% | 1012.8 hPa | 0 mm | - | 23 W/m² | - |
| 1777984152 | 13.33° C | 77% | 1012.8 hPa | 0 mm | - | 20 W/m² | - |
| 1777983850 | 13.33° C | 76% | 1012.9 hPa | 0 mm | - | 15 W/m² | - |
| 1777983546 | 12.78° C | 77% | 1012.9 hPa | 0 mm | - | 16 W/m² | - |
| 1777983243 | 12.78° C | 80% | 1012.8 hPa | 0 mm | - | 15 W/m² | - |
| 1777982939 | 12.22° C | 80% | 1012.8 hPa | 0 mm | - | 13 W/m² | - |
| 1777982636 | 12.22° C | 82% | 1013 hPa | 0 mm | - | 11 W/m² | - |
| 1777982334 | 11.67° C | 82% | 1012.8 hPa | 0 mm | - | 10 W/m² | - |
| 1777982032 | 11.67° C | 84% | 1012.8 hPa | 0 mm | - | 10 W/m² | - |
| 1777981729 | 11.11° C | 86% | 1012.5 hPa | 0 mm | - | 11 W/m² | - |
| 1777981426 | 11.11° C | 88% | 1012.5 hPa | 0 mm | - | 10 W/m² | - |
| 1777981122 | 10.56° C | 87% | 1012.5 hPa | 0 mm | - | 9 W/m² | - |
| 1777980819 | 10.56° C | 88% | 1012.5 hPa | 0 mm | - | 6 W/m² | - |
| 1777980514 | 10.56° C | 88% | 1012.2 hPa | 0 mm | - | 6 W/m² | - |
| 1777980212 | 10.56° C | 87% | 1012 hPa | 0 mm | - | 5 W/m² | - |
| 1777979907 | 10.56° C | 87% | 1012.1 hPa | 0 mm | - | 3 W/m² | - |
| 1777979603 | 10.56° C | 88% | 1012.1 hPa | 0 mm | - | 3 W/m² | - |
| 1777979300 | 10.56° C | 87% | 1012 hPa | 0 mm | - | 2 W/m² | - |
| 1777978997 | 10.56° C | 86% | 1012.3 hPa | 0 mm | - | 2 W/m² | - |
| 1777978694 | 10.56° C | 86% | 1011.7 hPa | 0 mm | - | 1 W/m² | - |
| 1777978390 | 10.56° C | 85% | 1011.8 hPa | 0 mm | - | 0 W/m² | - |
| 1777978086 | 10.56° C | 86% | 1011.7 hPa | 0 mm | - | 0 W/m² | - |
| 1777977784 | 10.56° C | 86% | 1011.8 hPa | 0 mm | - | 0 W/m² | - |
| 1777977479 | 10.56° C | 87% | 1011.8 hPa | 0 mm | - | 0 W/m² | - |
| 1777977177 | 10.56° C | 87% | 1011.8 hPa | 0 mm | - | 0 W/m² | - |
* Rain latest hour (hover to see other rain measurements)
** Current wind speed in m/s (hover to see current wind gust speed)